Regional Weather Roundup
Issued by NWS Grand Forks, ND

Home | Current Version | Previous Version | Graphics & Text | Print | Product List | Glossary On
Versions: 1 2 3 4 5 6 7 8 9 10 11 12 13 14 15 16 17 18 19 20 21 22 23 24 25 26 27 28 29 30 31 32 33 34 35 36 37 38 39 40 41 42 43 44 45 46 47 48 49 50
000
ASUS43 KFGF 311710
RWRFGF
PRAIRIE TO PINES  WEATHER ROUNDUP
NATIONAL WEATHER SERVICE EASTERN NORTH DAKOTA/GRAND FORKS ND
1200 PM CDT MON AUG 31 2015

 **SATELLITE DATA USED TO AUGMENT SKY COVER AT AUTOMATED STATIONS**
 *****  WEATHER ACROSS EASTERN NORTH DAKOTA  *****

CITY           SKY/WX    TMP DP  RH WIND       PRES   REMARKS
GRAND FORKS    CLOUDY    76  66  71 NW16G24   29.73R
GRAND FRKS AFB PTSUNNY   78  65  63 N15G21    29.75R
GRAND FRKS NWS   N/A     75 N/A N/A NW13        N/A
DEVILS LAKE    MOSUNNY   73  54  49 N14       29.79R
FARGO          MOSUNNY   81  64  56 SW15      29.74R
WAHPETON ARPT  SUNNY     82  57  42 SW16      29.77R
$$

 ***** WEATHER ACROSS CENTRAL AND WESTERN NORTH DAKOTA  *****

CITY           SKY/WX    TMP DP  RH WIND       PRES   REMARKS
BISMARCK       PTSUNNY   74  53  48 NW17G23   29.88R
MINOT          SUNNY     72  43  35 W24G33    29.84R
JAMESTOWN      MOSUNNY   73  60  63 NW18G25   29.82R
MINOT AFB      SUNNY     73  45  37 W18G28    29.82R
GARRISON         N/A     71  49  45 NW16G25   29.88R
WILLISTON      SUNNY     71  40  32 W17G25    29.88F
DICKINSON      SUNNY     71  42  35 NW18      29.94R
HETTINGER      PTSUNNY   73  44  35 NW9       29.97R
$$

 *****  OTHER AIRPORT OBSERVATIONS IN OUR AREA  *****

CITY           SKY/WX    TMP DP  RH WIND       PRES   REMARKS
WALHALLA       FAIR      73  59  60 MISG      29.74F
GRAFTON AIRPOR FAIR      77  63  61 N14       29.75R
VALLEY CITY AR FAIR      77  63  61 N18G26    29.79R
CANDO          NOT AVBL
CAVALIER APRT  FAIR      73  63  68 NW12G21   29.75R
GWINNER        FAIR      75  64  69 W13G20    29.79R
SHEYENNE NWR     N/A     76  63  63 W14       29.95S
ROLLA          FAIR      72  50  46 W16G24    29.81S
 ***** THE ABOVE OBSERVATIONS ARE NON NWS ARE NOT QUALITY
       CONTROLLED AND MAY MIS-REPORT RAIN FOR SNOW...
$$

  *****  WEATHER ACROSS NORTHERN MINNESOTA  *****

CITY           SKY/WX    TMP DP  RH WIND       PRES   REMARKS
FLAG ISLAND    CLOUDY    70  63  78 S10       29.67F
WARROAD        CLOUDY    70  64  83 SW8       29.72R
ROSEAU         PTSUNNY   70  63  78 SW10      29.72R
HALLOCK        PTSUNNY   75  66  73 NW9       29.73R
THF RVR FALLS  CLOUDY   N/A N/A N/A SW10      29.73R
BAUDETTE       PTSUNNY   77  62  59 SW13G21   29.70F
WASKISH        SUNNY     79  63  57 S6G17     29.73S
CROOKSTON      PTSUNNY   72  64  78 W12       29.74R
STEPHEN NDAWN    N/A     75  61  60 N8          N/A
GREENBUSH NDAW   N/A     72  64  78 W7          N/A
$$
  *****  WEATHER ACROSS CENTRAL AND WEST MINNESOTA  *****

CITY           SKY/WX    TMP DP  RH WIND       PRES   REMARKS
FOSSTON        SUNNY     79  61  53 SW15G24   29.76R
BEMIDJI        SUNNY     79  60  52 S15G21    29.76F
PARK RAPIDS    SUNNY     82  61  48 S13       29.80R
ELBOW LAKE     FAIR      78  65  65 S16G22    29.81R
WADENA         SUNNY     79  61  53 S15       29.81S
DETROIT LAKES  SUNNY     79  61  53 SW15      29.79S
MOORHEAD       MOSUNNY   79  63  57 SW13      29.75S
FERGUS FALLS   SUNNY     79  64  61 S14G21    29.78R
MORRIS MN      SUNNY     81  66  61 S14G21    29.81R
STAPLES        SUNNY     79  63  57 S13G20    29.83R
$$
  *****  WEATHER ELSEWHERE ACROSS MINNESOTA  *****

CITY           SKY/WX    TMP DP  RH WIND       PRES   REMARKS
DULUTH         SUNNY     75  64  68 S15       29.89F
INTRNTL FALLS  MOSUNNY   78  61  55 S10G22    29.74F
ELY            SUNNY     77  57  50 SW12G17   29.84S
CLOQUET        SUNNY     75  63  64 S12G20    29.89S
WHEATON        SUNNY     79  63  57 S12G17    29.79S
BRAINERD       SUNNY     77  64  64 S18G24    29.85R
HIBBING        MOSUNNY   77  62  59 S7        29.84F
ALEXANDRIA     SUNNY     77  66  68 S18G26    29.85S
SAINT CLOUD    SUNNY     78  69  73 S20G26    29.88F
MINNEAPOLIS    MOSUNNY   79  69  71 S12       29.93F
$$

  *****  WEATHER ACROSS SOUTH DAKOTA  *****

CITY           SKY/WX    TMP DP  RH WIND       PRES   REMARKS
SIOUX FALLS    MOSUNNY   77  68  73 S18       29.91R
BROOKINGS      SUNNY     75  66  73 S18       29.88F
WATERTOWN      SUNNY     78  65  63 S20       29.83R
HURON          SUNNY     82  63  52 S17G23    29.80S
SISSETON         N/A     80  61  52 W10       29.79R
ABERDEEN       MOSUNNY   76  60  57 W9        29.81R
MITCHELL       SUNNY     81  66  60 S10G21    29.84R
PIERRE         CLOUDY    77  60  55 N15G24    29.86R
MOBRIDGE       CLOUDY    75  61  61 N12       29.87R
RAPID CITY     CLOUDY    69  54  58 N17G23    30.01R
$$

  *****  SOME WEATHER IN NEARBY STATES *****

CITY           SKY/WX    TMP DP  RH WIND       PRES   REMARKS
GLASGOW MT     SUNNY     68  41  37 W18       29.88S
GREAT FALLS MT MOSUNNY   67  34  29 SW23G35   29.94S
CHEYENNE WY    PTSUNNY   78  45  30 VRB7      30.17R
SCOTTSBLUFF NE CLOUDY    81  55  40 W5        30.03R
OMAHA NE       MOSUNNY   80  70  71 S8        29.97S
DES MOINES IA  MOSUNNY   83  72  69 S9        29.99F
DAVENPORT IA   SUNNY     82  71  69 SE6       30.05F
CHICAGO IL     MOSUNNY   80  67  64 VRB3      30.08S
EAU CLAIRE WI  CLOUDY    73  67  81 S8        29.99S
LA CROSSE WI   MOSUNNY   76  68  76 S8        30.01S
$$

  *****  SOME NATIONAL WEATHER *****

CITY           SKY/WX    TMP DP  RH WIND       PRES   REMARKS
LA GUARDIA NY  PTSUNNY   85  65  51 SW9       30.01F
RALEIGH NC     CLOUDY    71  68  90 NE5       30.13F
ATLANTA GA     LGT RAIN  74  68  81 N7        30.16S
NEW ORLEANS LA PTSUNNY   88  71  57 NE8       30.08S HX  94
OKLAHOMA CITY  MOSUNNY   88  64  44 S14       30.01F
ALBUQUERQUE NM MOSUNNY   81  49  32 NE5       30.21S
SALT LAKE CITY MOSUNNY   76  41  28 W6        30.09S
LOS ANGELES CA PTSUNNY   72  64  76 E8        29.92R
BOISE ID       SUNNY     65  43  44 N5        30.09F
SEATTLE WA     CLOUDY    62  53  72 SW15G24   29.99R
$$

*** WEATHER ACROSS MANITOBA...SASKATCHEWAN AND ONTARIO ***
                ***ONTARIO***

CITY           SKY/WX    TMP DP  RH WIND       PRES   REMARKS
GERALDTON      PTSUNNY   73  66  78 S9G17     29.85F
THUNDER BAY    CLOUDY    66  63  88 E10       29.85F
SIOUX LOOKOUT  CLOUDY    75  63  64 SW10      29.71F
TORONTO        MOSUNNY   81  64  57 W13       30.03F
BIG TROUT LK   CLOUDY    61  57  88 SE12G20   29.61F
PICKLE LAKE    PTSUNNY   77  64  65 S13G21    29.66F
DRYDEN         SUNNY     75  61  60 SW12G18   29.70F
KENORA         CLOUDY    68  63  83 S10G18    29.68S
$$
                *** MANITOBA***

CITY           SKY/WX    TMP DP  RH WIND       PRES   REMARKS
BRANDON        PTSUNNY   70  57  64 W21G26    29.73S
DAUPHIN        SUNNY     70  55  60 W21G33    29.63R
ISLAND LAKE    LGT RAIN  66  64  94 SE6       29.51F
PILOT MOUND      N/A     68  54  60 W10         N/A
THE PAS        CLOUDY    63  54  72 W10       29.48F
THOMPSON       CLOUDY    55  54  94 E3        29.51F FOG
WINNIPEG       PTSUNNY   72  63  73 W17       29.71R
LYNN LAKE      CLOUDY    61  59  94 MISG      29.47S
CHURCHILL      CLOUDY    50  46  87 SE21G30   29.66S
GILLAM         DRZL/FOG  48  48 100 E6        29.55F VSB 3/4
$$
                ***SASKATCHEWAN***

CITY           SKY/WX    TMP DP  RH WIND       PRES   REMARKS
ESTEVAN        MOSUNNY   70  45  40 W20G31    29.81S
KINDERSLEY     PTSUNNY   66  36  32 SW17G25   29.66R
LLOYDMINSTER   MOSUNNY   64  45  48 SW8       29.58R
PRINCE ALBERT  MOSUNNY   66  50  55 SW6       29.52S
REGINA         MOSUNNY   66  45  45 W22G31    29.72S
YORKTON        MOSUNNY   63  55  77 SW15G21   29.64F
N. BATTLEFORD    N/A     68  43  40 W10       29.60R
LA RONGE       MOSUNNY   70  54  56 W6        29.45S
SASKATOON      MOSUNNY   70  46  43 W15G22    29.61R
SWIFT CURRENT  SUNNY     68  36  30 W25G35    29.74R
$$
NOTE: THESE ARE AUTOMATED STATIONS WITH LIMITED QUALITY CONTROL
      "FAIR" INDICATES FEW OR NO CLOUDS BELOW 12,000 FEET WITH NO
      SIGNIFICANT WEATHER AND/OR OBSTRUCTIONS TO VISIBILITY.
      SKY/WX - SKY CONDITION AND SIGNIFICANT WEATHER.
      TMP - AIR TEMPERATURE.    DP   - DEWPOINT TEMPERATURE.
      RH  - RELATIVE HUMIDITY.  PRES - PRESSURE.
      HX  - HEAT INDEX.         WCI  - WIND CHILL INDEX.
$



USA.gov is the U.S. government's official web portal to all federal, state and local government web resources and services.